EW3146 Weather Reports


time (UTC)temp
F
wind
direction
speed
knots
gust
knots
rain 1hr
in
rain 24hr
in
rain mn
in
humidity
%
barometer
mb
20260502225713 62 241 4.3 8.7 0.00 0.00 0.00 38 1009.0
20260502223714 62 233 4.3 10.4 0.00 0.00 0.00 37 1009.2
20260502222713 62 296 3.5 8.7 0.00 0.00 0.00 37 1009.3
20260502221711 62 221 5.2 13.0 0.00 0.00 0.00 37 1009.3
20260502220712 62 229 3.5 18.2 0.00 0.00 0.00 37 1009.4
20260502215711 62 325 6.1 13.0 0.00 0.00 0.00 36 1009.7
20260502214713 62 229 4.3 15.6 0.00 0.00 0.00 36 1009.6
20260502213712 63 270 5.2 16.5 0.00 0.00 0.00 37 1009.8
20260502211709 63 257 7.0 14.8 0.00 0.00 0.00 34 1010.2
20260502210709 63 234 4.3 13.9 0.00 0.00 0.00 35 1010.2
20260502205710 62 324 2.6 7.8 0.00 0.00 0.00 35 1010.4
20260502204709 63 267 6.1 13.9 0.00 0.00 0.00 33 1010.7
20260502203710 61 227 6.1 13.0 0.00 0.00 0.00 34 1010.8
20260502202710 63 215 6.1 16.5 0.00 0.00 0.00 32 1010.8
20260502201711 64 281 6.1 14.8 0.00 0.00 0.00 32 1011.1
20260502200711 62 262 6.1 17.4 0.00 0.00 0.00 33 1011.2
20260502195710 62 293 4.3 11.3 0.00 0.00 0.00 33 1011.4
20260502194709 62 264 7.0 15.6 0.00 0.00 0.00 36 1011.6
20260502193710 62 194 6.1 12.2 0.00 0.00 0.00 32 1011.7
20260502192711 61 287 4.3 13.9 0.00 0.00 0.00 34 1012.1
20260502191710 63 256 2.6 13.0 0.00 0.00 0.00 33 1012.1
20260502190710 62 308 5.2 11.3 0.00 0.00 0.00 35 1012.2
20260502185710 61 223 4.3 12.2 0.00 0.00 0.00 33 1012.2
20260502184709 61 272 5.2 13.0 0.00 0.00 0.00 34 1012.5
20260502183708 60 351 4.3 12.2 0.00 0.00 0.00 34 1012.6
20260502181706 59 236 6.1 11.3 0.00 0.00 0.00 35 1013.0
20260502180705 59 201 7.0 19.1 0.00 0.00 0.00 34 1013.4
20260502163703 56 242 3.5 10.4 0.00 0.00 0.00 34 1014.8
20260502162703 56 270 4.3 10.4 0.00 0.00 0.00 36 1014.9
20260502161704 55 286 6.1 12.2 0.00 0.00 0.00 36 1015.0
20260502151701 53 238 2.6 7.0 0.00 0.00 0.00 39 1015.9
20260502150700 53 239 1.7 7.8 0.00 0.00 0.00 40 1016.1
20260502130658 35 133 0.0 1.7 0.00 0.00 0.00 80 1016.9
20260502123658 29 130 0.0 0.0 0.00 0.00 0.00 87 1016.9
20260502122657 28 130 0.0 0.0 0.00 0.00 0.00 87 1016.9
20260502120656 27 130 0.0 0.0 0.00 0.00 0.00 88 1016.9
20260502115656 26 130 0.0 0.0 0.00 0.00 0.00 88 1017.0
20260502113656 26 130 0.0 0.0 0.00 0.00 0.00 87 1017.0
20260502111657 25 130 0.0 0.0 0.00 0.00 0.00 87 1016.9
20260502110657 25 130 0.0 0.0 0.00 0.00 0.00 87 1017.0
20260502105656 25 130 0.0 0.0 0.00 0.00 0.00 87 1016.9
20260502103654 25 130 0.0 0.0 0.00 0.00 0.00 86 1017.0
20260502102654 25 130 0.0 0.0 0.00 0.00 0.00 86 1017.1
20260502101654 25 130 0.0 1.7 0.00 0.00 0.00 85 1017.1
20260502090650 26 130 0.0 0.0 0.00 0.00 0.00 84 1017.1
20260502070647 28 135 0.0 0.0 0.00 0.00 0.00 79 1017.8
20260502065644 29 135 0.0 0.0 0.00 0.00 0.00 79 1017.9
20260502063643 29 135 0.0 0.0 0.00 0.00 0.00 77 1018.0
20260502062642 29 135 0.0 0.0 0.00 0.00 0.00 77 1017.9
20260502060642 29 135 0.0 0.0 0.00 0.00 0.00 76 1018.0
20260502052642 31 135 0.0 0.0 0.00 0.00 0.00 74 1018.1
20260502051642 31 135 0.0 0.0 0.00 0.00 0.00 73 1018.0
20260502050642 31 135 0.0 0.0 0.00 0.00 0.00 73 1018.0
20260502045641 31 135 0.0 0.0 0.00 0.00 0.00 73 1018.0
20260502044640 32 135 0.0 0.0 0.00 0.00 0.00 72 1018.1
20260502043640 32 135 0.0 0.0 0.00 0.00 0.00 71 1018.1
20260502042640 32 135 0.0 0.0 0.00 0.00 0.00 69 1018.1
20260502041641 33 135 0.0 0.0 0.00 0.00 0.00 69 1018.1
20260502040640 33 135 0.0 0.0 0.00 0.00 0.00 69 1018.1
20260502035641 34 135 0.0 0.0 0.00 0.00 0.00 69 1018.1
20260502034639 35 135 0.0 0.0 0.00 0.00 0.00 66 1018.1
20260502033635 35 135 0.0 0.0 0.00 0.00 0.00 64 1018.1
20260502032634 36 135 0.0 0.0 0.00 0.00 0.00 64 1018.1
20260502030634 37 135 0.0 0.0 0.00 0.00 0.00 62 1018.0
20260502025633 37 135 0.0 0.0 0.00 0.00 0.00 60 1018.1
20260502024634 38 135 0.0 0.0 0.00 0.00 0.00 58 1018.1
20260502023635 39 135 0.0 0.0 0.00 0.00 0.00 57 1018.0
20260502022635 40 135 0.0 0.9 0.00 0.00 0.00 56 1018.1
20260502020628 41 135 0.0 0.9 0.00 0.00 0.00 53 1017.9
20260502012628 44 143 1.7 2.6 0.00 0.00 0.00 48 1017.6
20260502011630 45 134 1.7 7.0 0.00 0.00 0.00 47 1017.5
20260502010625 45 85 0.9 2.6 0.00 0.00 0.00 47 1017.4
20260502004624 47 138 2.6 7.8 0.00 0.00 0.00 42 1017.4
20260502002625 49 11 1.7 8.7 0.00 0.00 0.00 34 1017.2
20260502001624 50 63 0.9 2.6 0.00 0.00 0.00 34 1017.1
20260502000623 50 46 0.9 3.5 0.00 0.00 0.00 35 1017.1
20260501235623 51 284 1.7 4.3 0.00 0.00 0.00 34 1017.1
20260501234623 51 58 0.9 3.5 0.00 0.00 0.00 35 1017.0
20260501233624 51 5 2.6 6.1 0.00 0.00 0.00 32 1017.0
20260501231623 52 355 1.7 4.3 0.00 0.00 0.00 34 1017.0
20260501230624 52 290 1.7 3.5 0.00 0.00 0.00 34 1017.1